User: anonymous   Login
Location: Brno
(49.2000°N, 16.6330°E)
Time: 04:36:40
(UTC+02:00)
Language:

Cosmos 2227 - Orbit

View from above orbital plane
View from above orbital plane
View from above satellite
View from above satellite

Ground track
Ground track

The orbit data is extracted from the following two-line orbital elements,

1 22284U 92093A   17203.43299047 +.00000114 +00000-0 +86001-4 0  9997
2 22284 070.9765 161.5937 0017774 124.5787 235.7015 14.13272325267622
Epoch (UTC): 22 July 2017 10:23:30
Eccentricity: 0.0017774
inclination: 70.9765°
perigee height: 835 km
apogee height: 861 km
right ascension of ascending node: 161.5937°
argument of perigee: 124.5787°
revolutions per day: 14.13272325
mean anomaly at epoch: 235.7015°
orbit number at epoch: 26762

The dashed part of the orbit path shows where the satellite is in the earth's shadow,  

DLR